This demonstration page uses our WeatherBlox Daily Observations layout. Learn more.

Hourly Observations for April 26, 2018

Temp ( °F °C ) Dew Point ( °F °C ) Humidity (%) Winds ( mph kmh ) Pressure ( in mb ) Visibility ( mi km ) Precip ( " mm )
12:15 am 00:15 Clear 44 6.7 36 2.1 73 73 S 9 15 30.03 1017 10 16.0934 0 0
12:35 am 00:35 Clear 43 6.2 36 2.2 76 76 S 9 15 30.03 1017 10 16.0934 0 0
12:55 am 00:55 Clear 42 5.6 36 2.2 79 79 S 8 13 30.06 1018 10 16.0934 0 0
1:15 am 01:15 Clear 42 5.8 36 2.1 77 77 S 9 15 30.06 1018 10 16.0934 0 0
1:35 am 01:35 Clear 42 5.5 36 2.2 80 80 S 8 13 30.06 1018 10 16.0934 0 0
1:55 am 01:55 Clear 40 4.5 36 2.3 86 86 S 6 9 30.03 1017 10 16.0934 0 0
2:15 am 02:15 Clear 40 4.2 36 2.4 88 88 S 8 13 30.03 1017 10 16.0934 0 0
2:35 am 02:35 Clear 40 4.6 37 2.5 86 86 S 7 11 30.03 1017 10 16.0934 0 0
2:55 am 02:55 Clear 40 4.5 37 2.5 87 87 S 8 13 30.03 1017 10 16.0934 0 0
3:15 am 03:15 Clear 40 4.5 37 2.6 88 88 S 9 15 30.03 1017 10 16.0934 0 0
3:35 am 03:35 Clear 39 4.1 37 2.5 89 89 S 7 11 30.03 1017 10 16.0934 0 0
3:55 am 03:55 Clear 39 4.1 37 2.5 89 89 S 9 15 30 1016 10 16.0934 0 0
4:15 am 04:15 Clear 39 4 36 2.1 88 88 SSW 7 11 30.03 1017 10 16.0934 0 0
4:35 am 04:35 Clear 39 3.7 36 2.2 90 90 S 6 9 30.03 1017 10 16.0934 0 0
4:55 am 04:55 Clear 38 3.2 35 1.8 91 91 S 3 6 30.03 1017 10 16.0934 0 0
5:15 am 05:15 Clear 36 2 34 1 93 93 SSW 5 7 30.06 1018 10 16.0934 0 0
5:35 am 05:35 Clear 37 2.9 35 1.7 92 92 S 7 11 30.03 1017 10 16.0934 0 0
5:55 am 05:55 Clear 37 3 35 1.5 90 90 S 7 11 30 1016 10 16.0934 0 0
6:15 am 06:15 Clear 36 2.2 34 1 92 92 S 7 11 30 1016 10 16.0934 0 0
6:35 am 06:35 Clear 37 2.9 35 1.6 91 91 S 8 13 29.97 1015 10 16.0934 0 0
6:55 am 06:55 Sunny 38 3.2 35 1.8 91 91 S 8 13 29.97 1015 10 16.0934 0 0
7:15 am 07:15 Sunny 38 3.5 36 2 90 90 SSW 8 13 30 1016 10 16.0934 0 0
7:35 am 07:35 Sunny 38 3.5 36 2.3 92 92 S 6 9 30 1016 10 16.0934 0 0
7:55 am 07:55 Sunny 39 4.1 37 2.8 91 91 W 3 6 30.03 1017 10 16.0934 0 0
8:15 am 08:15 Sunny 42 5.4 38 3.1 85 85 W 5 7 30.03 1017 10 16.0934 0 0
8:35 am 08:35 Sunny 41 5.2 38 3.6 90 90 NNW 3 6 30.03 1017 10 16.0934 0 0
8:55 am 08:55 Sunny 42 5.3 38 3.3 87 87 NNW 3 6 30.03 1017 10 16.0934 0 0
9:15 am 09:15 Sunny 43 6.2 38 3.4 82 82 W 3 6 30.03 1017 10 16.0934 0 0
9:35 am 09:35 Sunny 47 8.1 40 4.2 77 77 W 5 7 30.03 1017 10 16.0934 0 0
9:55 am 09:55 Sunny 50 10.1 41 4.9 70 70 NW 9 15 30 1016 10 16.0934 0 0
10:15 am 10:15 Sunny 53 11.5 41 4.8 64 64 N 14 22 30 1016 10 16.0934 0 0
10:35 am 10:35 Sunny 56 13.4 42 5.7 60 60 N 21 33 30 1016 10 16.0934 0 0
10:55 am 10:55 Sunny 58 14.5 41 5 53 53 N 21 33 30 1016 10 16.0934 0 0
11:15 am 11:15 Sunny 59 15 41 5.1 52 52 N 18 30 30 1016 10 16.0934 0 0
11:35 am 11:35 Sunny 58 14.2 41 5 54 54 N 18 30 30.03 1017 10 16.0934 0 0
11:55 am 11:55 Sunny 59 15 42 5.4 53 53 N 24 39 30.03 1017 10 16.0934 0 0
12:15 pm 12:15 Sunny 57 14 40 4.3 52 52 N 24 39 30.03 1017 10 16.0934 0 0
12:35 pm 12:35 Sunny 56 13.2 40 4.2 55 55 N 21 33 30.03 1017 10 16.0934 0 0
12:55 pm 12:55 Sunny 56 13.5 39 3.9 53 53 N 25 41 30.06 1018 10 16.0934 0 0
1:15 pm 13:15 Partly Cloudy 58 14.5 40 4.2 50 50 N 31 50 30.06 1018 10 16.0934 0 0
1:35 pm 13:35 Sunny 61 16 40 4.3 46 46 N 28 44 30.03 1017 10 16.0934 0 0
1:55 pm 13:55 Sunny 62 16.6 39 3.8 43 43 N 26 43 30.06 1018 10 16.0934 0 0
2:15 pm 14:15 Sunny 62 16.5 37 2.8 40 40 N 28 44 30.06 1018 10 16.0934 0 0
2:35 pm 14:35 Sunny 63 17 37 2.5 38 38 N 26 43 30.03 1017 10 16.0934 0 0
2:55 pm 14:55 Sunny 63 17.2 36 2.2 37 37 N 23 37 30.03 1017 10 16.0934 0 0
3:15 pm 15:15 Sunny 63 17.2 35 1.7 35 35 NNE 25 41 30.03 1017 10 16.0934 0 0
3:35 pm 15:35 Sunny 63 17.2 34 0.9 33 33 N 23 37 30.03 1017 10 16.0934 0 0
3:55 pm 15:55 Sunny 63 17.2 33 0.3 32 32 N 21 33 30.03 1017 10 16.0934 0 0
4:15 pm 16:15 Sunny 63 17 31 -0.4 31 31 N 22 35 30.03 1017 10 16.0934 0 0
4:35 pm 16:35 Sunny 63 17.4 32 -0.1 31 31 N 22 35 30.03 1017 10 16.0934 0 0
4:55 pm 16:55 Sunny 63 17.1 32 0 32 32 N 23 37 30.03 1017 10 16.0934 0 0
5:15 pm 17:15 Sunny 63 17.2 32 -0.2 31 31 N 21 33 30.03 1017 10 16.0934 0 0
5:35 pm 17:35 Sunny 63 17 32 -0.2 31 31 N 21 33 30.03 1017 10 16.0934 0 0
5:55 pm 17:55 Sunny 63 17 31 -0.3 31 31 N 17 28 30.03 1017 10 16.0934 0 0
6:15 pm 18:15 Sunny 62 16.6 32 -0.2 32 32 N 18 30 30.06 1018 10 16.0934 0 0
6:35 pm 18:35 Sunny 62 16.5 31 -0.4 32 32 N 16 26 30.06 1018 10 16.0934 0 0
6:55 pm 18:55 Sunny 61 16 31 -0.4 33 33 N 18 30 30.06 1018 10 16.0934 0 0
7:15 pm 19:15 Sunny 60 15.6 31 -0.6 33 33 N 15 24 30.09 1019 10 16.0934 0 0
7:35 pm 19:35 Sunny 59 15.1 31 -0.6 34 34 N 14 22 30.09 1019 10 16.0934 0 0
7:55 pm 19:55 Sunny 58 14.3 31 -0.6 36 36 N 12 19 30.09 1019 10 16.0934 0 0
8:15 pm 20:15 Sunny 54 12.3 31 -0.5 42 42 N 9 15 30.12 1020 10 16.0934 0 0
8:35 pm 20:35 Clear 52 11 31 -0.5 45 45 N 7 11 30.12 1020 10 16.0934 0 0
8:55 pm 20:55 Clear 49 9.6 31 -0.5 50 50 N 5 7 30.15 1021 10 16.0934 0 0
9:15 pm 21:15 Clear 50 10 31 -0.8 47 47 N 6 9 30.15 1021 10 16.0934 0 0
9:35 pm 21:35 Clear 49 9.5 30 -0.9 49 49 NNW 5 7 30.15 1021 10 16.0934 0 0
9:55 pm 21:55 Clear 46 7.8 31 -0.6 56 56 Calm 30.15 1021 10 16.0934 0 0
10:15 pm 22:15 Clear 45 7.2 31 -0.5 58 58 Calm 30.15 1021 10 16.0934 0 0
10:35 pm 22:35 Clear 42 5.8 31 -0.5 64 64 Calm 30.18 1022 10 16.0934 0 0
10:55 pm 22:55 Clear 42 5.4 31 -0.6 66 66 WNW 3 6 30.18 1022 10 16.0934 0 0
11:15 pm 23:15 Clear 41 4.9 31 -0.7 67 67 WNW 3 6 30.18 1022 10 16.0934 0 0
11:35 pm 23:35 Clear 42 5.4 30 -0.9 64 64 W 3 6 30.18 1022 10 16.0934 0 0
11:55 pm 23:55 Clear 42 5.6 30 -1 63 63 Calm 30.18 1022 10 16.0934 0 0

Powered by AerisWeather